This is the latest recevied weather packets stored in our database for station/object KY4EF. If no packets are shown the sender has not sent any weather packets the latest 10 day(s).
| Time | Temp. | Humidity | Pressure | Rain* | Wind** | Luminosity | Snow |
|---|---|---|---|---|---|---|---|
| 1777326032 | 25° C | 40% | 1017.2 hPa | 0 mm | - | 102 W/m² | - |
| 1777325730 | 25.56° C | 39% | 1016.7 hPa | 0 mm | - | 85 W/m² | - |
| 1777325428 | 25.56° C | 41% | 1016.8 hPa | 0 mm | - | 108 W/m² | - |
| 1777325125 | 26.67° C | 36% | 1017.1 hPa | 0 mm | - | 137 W/m² | - |
| 1777324821 | 26.67° C | 36% | 1016.8 hPa | 0 mm | - | 317 W/m² | - |
| 1777324520 | 26.11° C | 36% | 1016.8 hPa | 0 mm | - | 348 W/m² | - |
| 1777324216 | 26.67° C | 34% | 1016.8 hPa | 0 mm | - | 326 W/m² | - |
| 1777323915 | 27.22° C | 34% | 1016.9 hPa | 0 mm | - | 313 W/m² | - |
| 1777323611 | 27.78° C | 32% | 1016.8 hPa | 0 mm | - | 338 W/m² | - |
| 1777323308 | 27.78° C | 31% | 1016.7 hPa | 0 mm | - | 420 W/m² | - |
| 1777323007 | 28.33° C | 32% | 1016.8 hPa | 0 mm | - | 444 W/m² | - |
| 1777322704 | 28.89° C | 29% | 1016.8 hPa | 0 mm | - | 446 W/m² | - |
| 1777322402 | 28.33° C | 28% | 1017.1 hPa | 0 mm | - | 487 W/m² | - |
| 1777322098 | 28.33° C | 27% | 1016.8 hPa | 0 mm | - | 490 W/m² | - |
| 1777321795 | 28.33° C | 27% | 1017.1 hPa | 0 mm | - | 509 W/m² | - |
| 1777321491 | 28.89° C | 27% | 1017.2 hPa | 0 mm | - | 500 W/m² | - |
| 1777321189 | 27.78° C | 29% | 1017.2 hPa | 0 mm | - | 533 W/m² | - |
| 1777320886 | 28.33° C | 30% | 1017.3 hPa | 0 mm | - | 552 W/m² | - |
| 1777320583 | 28.89° C | 31% | 1017.1 hPa | 0 mm | - | 560 W/m² | - |
| 1777320281 | 30° C | 33% | 1016.9 hPa | 0 mm | - | 571 W/m² | - |
| 1777319977 | 30° C | 29% | 1016.9 hPa | 0 mm | - | 587 W/m² | - |
| 1777319674 | 29.44° C | 30% | 1017.2 hPa | 0 mm | - | 607 W/m² | - |
| 1777319371 | 28.89° C | 28% | 1017.3 hPa | 0 mm | - | 581 W/m² | - |
| 1777319068 | 28.33° C | 30% | 1016.9 hPa | 0 mm | - | 508 W/m² | - |
| 1777318765 | 28.89° C | 28% | 1017.2 hPa | 0 mm | - | 392 W/m² | - |
* Rain latest hour (hover to see other rain measurements)
** Current wind speed in m/s (hover to see current wind gust speed)